Regional Weather Roundup
Issued by NWS

Home | Current Version | Previous Version | Text Only | Print | Product List | Glossary Off
Versions: 1 2 3 4 5 6 7 8 9 10 11 12 13 14 15 16 17 18 19 20 21 22 23 24 25 26 27 28 29 30 31 32 33 34 35 36 37 38 39 40 41 42 43 44 45 46 47 48 49 50

000
ASUS43 KBIS 230320
RWRND

NORTH DAKOTA REGIONAL WEATHER ROUNDUP
NATIONAL WEATHER SERVICE BISMARCK ND
1000 PM CDT TUE APR 22 2014

NOTE: "FAIR" INDICATES FEW OR NO CLOUDS BELOW 12,000 FEET WITH NO
SIGNIFICANT WEATHER AND/OR OBSTRUCTIONS TO VISIBILITY.


NDZ001>003-009>011-017-230400-
NORTHWEST NORTH DAKOTA

CITY           SKY/WX    TMP DP  RH WIND       PRES   REMARKS
WILLISTON      CLOUDY    60  30  32 E16G29    29.65S
MINOT          MOCLDY    54  32  43 E17G24    29.79R
MINOT AFB      MOCLDY    51  36  55 E18       29.79R
$$

NDZ018>021-031>035-040>046-230400-
SOUTHWEST NORTH DAKOTA

CITY           SKY/WX    TMP DP  RH WIND       PRES   REMARKS
BISMARCK       PTCLDY    58  32  37 E23G32    29.76F
DICKINSON      MOCLDY    56  30  37 E26G33    29.64S
GARRISON         N/A     53  34  48 E18       29.76R
HETTINGER ARPT CLOUDY    56  30  37 E22G30    29.63F
$$

NDZ004>008-012>016-024-026-027-054-230400-
NORTHEAST NORTH DAKOTA

CITY           SKY/WX    TMP DP  RH WIND       PRES   REMARKS
GRAND FORKS    PTCLDY    52  32  46 E12       29.98S
GRND FRKS AFB  PTCLDY    50  33  53 E8        29.98S
DEVILS LAKE    MOCLDY    48  34  57 E14       29.92R
$$

NDZ022-023-025-028>030-036>039-047>053-230400-
SOUTHEAST NORTH DAKOTA

CITY           SKY/WX    TMP DP  RH WIND       PRES   REMARKS
FARGO          PTCLDY    52  33  48 SE9       29.97S
JAMESTOWN      PTCLDY    51  33  50 SE15      29.89S
$$




USA.gov is the U.S. government's official web portal to all federal, state and local government web resources and services.